OPS 3367 A

Satellite information

Favourite Embed

Satellite Type and Status

PAYLOADIN ORBIT

Key statistics

Satellite OPS 3367 A at a glance.

Uptime

22559

Days in orbit

Revolutions

≈ 14.3

Per day

Orbit

SSO

Sun Synchronous Orbit

Inclination

99.0

Latest

Satellite identification and parameters

Extended collection of information and parameters for OPS 3367 A.

Object identification

Identified? True

Debris? False

Object name: OPS 3367 A

International designator: 1964-002B

Object number (NORAD): 734

Object ID (CCSDS): 734

Country: UNITED STATES OF AMERICA (US)

Current information (Y/N): Y

RCS size: MEDIUM

Orbital parameters

Period: 100.727 minutes

Inclination: 98.9669 deg

SMA: 7171.186 km

Apoapsis: 803.728 km

Periapsis: 782.373 km

RAAN: 214.7159 deg

Eccentricy: 0.00148898

Argument of periapsis: 149.5972 deg

Mean anomaly: 210.6075 deg

Mean motion: 14.29605846 rev/day

Mean motion (dot): 0.00000214 rev/day2

B* drag term: 0.00010181483 1/REarth

Two-line elements (TLE)

Creation date: Oct. 24, 2025, 2:48 a.m.

Reference frame: TEME

Reference center: EARTH

Epoch: Oct. 23, 2025, 4:31 p.m. UTC

TLE line 0: 0 OPS 3367 A

TLE line 1: 1 00734U 64002B 25296.68836194 .00000214 00000-0 10181-3 0 9996

TLE line 2: 2 00734 98.9669 214.7159 0014890 149.5972 210.6075 14.29605846214970

Live tracking on map

Real-time ground track for satellite OPS 3367 A.

In-orbit conjunctions

There are no conjunctions computed for OPS 3367 A, at the moment. Check back to stay up to date, as we update our databases every day.

Go to all conjunctions

Associated space launch

The DSAP-1 (Defense Satellite Application Program Block 1) satellites series, also known as P-35, was the first series of military meteorologal satellites of the USA.

OPS 3367 A was lifted into orbit during the mission ‘Thor SLV-2 Agena D | DSAP-1 F6 & F7’, on board a Thor SLV-2 Agena D space rocket.

The launch took place on Jan. 19, 1964, 10:59 a.m. from Space Launch Complex 2W.

For more information about the launch, click the button.

Launch to space Thor SLV-2 Agena D | DSAP-1 F6 & F7
Thor SLV-2 Agena D | DSAP-1 F6 & F7

Agency: N/A

Status: Launch Successful

Launch date: Jan. 19, 1964, 10:59 a.m. UTC

Rocket: Thor SLV-2 Agena D

Launch pad: Space Launch Complex 2W

Location: Vandenberg SFB, CA, USA

...

Latest news about this satellite

There are no fresh news available about this satellite. Check back as we update our databases every day.


Newsletter sign-up

Weekly statistics, charts and insights to help you stay on top of the space industry.